Location: Unspecified
(0.0000°N, 0.0000°E)
Time: 03:10:55
(UTC+00:00)

Vanguard 3 - Visible Passes

Search period start: 02 April 2015 00:00
Search period end: 12 April 2015 00:00
Orbit: 509 x 3272 km, 33.4° (Epoch: 01 April)

Date Brightness Start Highest point End Pass type
(mag) Time Alt. Az. Time Alt. Az. Time Alt. Az.
02 Apr 11.2 02:21:35 13° NNW 02:30:14 18° N 02:39:56 10° NE visible
02 Apr 10.4 04:37:01 10° NNW 04:50:13 31° NNE 04:59:01 10° E visible
02 Apr 8.9 18:07:27 10° SW 18:15:13 59° SE 18:29:18 10° ENE visible
02 Apr 9.8 20:19:23 10° WSW 20:30:14 51° NNW 20:42:29 21° NE visible
02 Apr 11.0 22:37:03 10° WNW 23:07:48 - NE 22:47:20 24° NNW visible
03 Apr 11.3 01:12:25 17° N 01:12:28 17° N 01:23:08 10° NE visible
03 Apr 10.9 03:21:12 10° NNW 03:34:20 24° NNE 03:44:23 10° ENE visible
03 Apr 9.5 05:37:52 10° NW 05:52:03 53° NNE 06:00:07 10° ESE visible
03 Apr 9.1 19:06:32 10° WSW 19:15:29 73° NNW 19:31:32 10° NE visible
03 Apr 10.6 21:21:14 10° W 21:32:50 32° NNW 21:40:29 24° NNE visible
03 Apr 11.4 23:42:43 10° NW 00:03:20 13° NNE 00:06:17 10° NNE visible
04 Apr 11.1 02:07:58 14° NNW 02:17:25 20° N 02:28:19 10° NE visible
04 Apr 10.2 04:22:12 10° NW 04:37:14 38° NNE 04:46:57 10° E visible
04 Apr 10.0 20:06:58 10° W 20:16:59 42° NNW 20:32:45 10° NE visible
04 Apr 11.1 22:25:13 10° WNW 22:36:38 22° NNW 22:38:28 21° N visible
05 Apr 11.3 00:59:02 18° N 00:59:37 18° N 01:10:55 10° NE visible
05 Apr 10.7 03:06:28 10° NNW 03:21:21 29° NNE 03:32:32 10° ENE visible
05 Apr 9.4 05:23:17 10° NW 05:38:52 66° NNE 05:47:36 10° ESE visible
05 Apr 9.3 18:53:55 10° WSW 19:02:12 60° NNW 19:16:58 10° NE visible
05 Apr 10.7 21:09:14 10° WNW 21:19:45 27° NNW 21:31:31 13° NNE visible
05 Apr 11.3 23:30:36 10° NW 23:50:20 13° NNE 23:53:01 10° NE visible
06 Apr 11.1 01:55:00 16° NNW 02:04:26 23° NNE 02:16:32 10° ENE visible
06 Apr 10.1 04:07:25 10° NW 04:24:04 46° NNE 04:34:36 10° E visible
06 Apr 10.2 19:54:45 10° W 20:03:53 34° NNW 20:17:56 10° NE visible
06 Apr 11.1 22:13:31 10° NW 22:23:43 19° N 22:29:06 17° NNE visible
07 Apr 11.3 00:46:40 19° N 00:46:41 19° N 00:58:50 10° NE visible
07 Apr 10.6 02:51:46 10° NW 03:08:10 34° NNE 03:20:23 10° E visible
07 Apr 9.3 05:08:44 10° NW 05:25:29 79° NE 05:34:54 10° ESE visible
07 Apr 9.5 18:41:28 10° W 18:49:06 48° NNW 19:02:20 10° NE visible
07 Apr 10.9 20:57:27 10° WNW 21:06:48 22° NNW 21:18:54 10° NNE visible
07 Apr 11.3 23:18:16 10° NNW 23:38:45 11° NE 23:39:59 10° NE visible
08 Apr 11.0 01:43:31 21° NNW 01:51:17 26° NNE 02:04:32 10° ENE visible
08 Apr 9.9 03:52:41 10° NW 04:10:40 56° NNE 04:22:02 10° ESE visible
08 Apr 10.4 19:42:44 10° WNW 19:50:56 27° NNW 20:03:00 10° NNE visible
08 Apr 11.2 22:01:53 10° NW 22:10:52 17° N 22:18:07 13° NNE visible
09 Apr 11.2 00:20:58 10° NNW 00:36:04 21° NNE 00:46:44 10° ENE visible
09 Apr 10.5 02:40:52 17° NNW 02:54:45 41° NNE 03:07:59 10° E visible
09 Apr 9.3 04:54:14 10° NW 05:11:55 88° SW 05:22:01 10° SE visible
09 Apr 9.8 18:29:10 10° W 18:36:07 37° NNW 18:47:37 10° NE visible
09 Apr 11.0 20:45:57 10° NW 20:53:57 18° N 21:04:00 10° NNE visible
09 Apr 11.3 23:05:40 10° NNW 23:28:57 - NE 23:14:17 17° N visible
10 Apr 10.9 01:33:47 28° N 01:37:57 30° NNE 01:52:18 10° E visible
10 Apr 9.8 03:38:36 11° NW 03:57:02 65° NNE 04:09:15 10° ESE visible
10 Apr 10.6 19:30:58 10° WNW 19:38:06 22° NNW 19:47:57 10° NNE visible
10 Apr 11.2 21:50:14 10° NNW 21:58:04 15° N 22:05:28 12° NNE visible
11 Apr 11.2 00:07:11 10° NNW 00:26:51 20° NE 00:34:32 10° ENE visible
11 Apr 10.3 02:31:41 31° NNW 02:41:08 47° NNE 02:55:20 10° E visible
11 Apr 9.3 04:39:48 10° WNW 04:58:08 77° SW 05:09:00 10° SE visible
11 Apr 10.0 18:17:05 10° WNW 18:23:17 28° NNW 18:32:48 10° NNE visible
11 Apr 11.0 20:34:44 10° NW 20:41:12 15° N 20:49:00 10° NNE visible
11 Apr 11.2 22:52:45 10° NNW 23:19:59 - ENE 23:01:07 17° N visible
